Location: Oriwa
(40.7500°S, 175.3333°E)
Time: 13:17:21
(UTC+00:00)

CZ-2D R/B - Pass Details

Date: 03 February 2023
Orbit: 790 x 845 km, 98.8° (Epoch: 30 March)

Event Time Altitude Azimuth Distance (km) Brightness Sun altitude
Exits shadow 13:09:35 49° 191° (S) 1,026 2.8 -32.1°
Drops below altitude 10° 13:13:25 10° 193° (SSW) 2,399 5.3 -32.0°
Sets 13:15:47 0° 193° (SSW) 3,341 6.2 -31.9°
